EW9366 Weather Reports


Display with metric or nautical units.
time (UTC)temp
F
wind
direction
speed
MPH
gust
MPH
rain 1hr
in
rain 24hr
in
rain mn
in
humidity
%
barometer
mb
20260510133624 70 85 0.0 2.0 0.00 0.00 0.00 76 1016.5
20260510133611 69 84 0.0 1.0 0.00 0.00 0.00 78 1016.2
20260510132604 68 81 0.0 1.0 0.00 0.00 0.00 81 1016.1
20260510132053 67 189 0.0 1.0 0.00 0.00 0.00 82 1015.9
20260510131549 66 249 0.0 1.0 0.00 0.00 0.00 82 1015.9
20260510131025 66 249 0.0 2.0 0.00 0.00 0.00 83 1015.8
20260510130945 65 45 0.0 2.0 0.00 0.00 0.00 84 1015.6
20260510125958 65 65 0.0 1.0 0.00 0.00 0.00 83 1015.5
20260510125432 65 40 0.0 2.0 0.00 0.00 0.00 84 1015.5
20260510124930 64 40 0.0 2.0 0.00 0.00 0.00 84 1015.3
20260510124850 64 46 0.0 1.0 0.00 0.00 0.00 85 1015.2
20260510123900 63 46 1.0 3.0 0.00 0.00 0.00 87 1015.3
20260510123844 62 44 1.0 3.0 0.00 0.00 0.00 86 1015.1
20260510122840 62 70 0.0 1.0 0.00 0.00 0.00 87 1015.1
20260510122758 62 77 0.0 1.0 0.00 0.00 0.00 88 1015.0
20260510121811 61 77 0.0 1.0 0.00 0.00 0.00 88 1014.9
20260510121306 61 77 0.0 1.0 0.00 0.00 0.00 88 1014.7
20260510120741 61 77 0.0 1.0 0.00 0.00 0.00 89 1014.5
20260510120213 60 77 0.0 1.0 0.00 0.00 0.00 89 1014.3
20260510120159 60 77 0.0 1.0 0.00 0.00 0.00 89 1014.2
20260510115411 60 92 0.0 0.0 0.00 0.00 0.00 89 1014.2
20260510114619 60 92 0.0 0.0 0.00 0.00 0.00 89 1014.3
20260510114056 60 57 0.0 1.0 0.00 0.00 0.00 89 1014.2
20260510113555 60 57 0.0 1.0 0.00 0.00 0.00 89 1014.2
20260510113056 59 86 0.0 1.0 0.00 0.00 0.00 89 1014.2
20260510112553 59 222 0.0 1.0 0.00 0.00 0.00 89 1014.2
20260510112038 59 228 0.0 2.0 0.00 0.00 0.00 88 1014.0
20260510111534 59 228 0.0 0.0 0.00 0.00 0.00 88 1013.9
20260510111018 59 228 0.0 0.0 0.00 0.00 0.00 88 1014.0
20260510110452 59 228 0.0 0.0 0.00 0.00 0.00 88 1013.9
20260510105923 59 229 0.0 0.0 0.00 0.00 0.00 87 1013.8
20260510105358 59 228 0.0 0.0 0.00 0.00 0.00 87 1013.9
20260510104833 60 228 0.0 0.0 0.00 0.00 0.00 86 1013.8
20260510104307 60 228 0.0 0.0 0.00 0.00 0.00 86 1013.8
20260510103739 60 229 0.0 0.0 0.00 0.00 0.00 85 1013.9
20260510103657 60 229 0.0 0.0 0.00 0.00 0.00 85 1013.9
20260510102711 60 229 0.0 0.0 0.00 0.00 0.00 85 1013.8
20260510102142 61 229 0.0 0.0 0.00 0.00 0.00 85 1013.9
20260510101637 60 229 0.0 0.0 0.00 0.00 0.00 86 1013.9
20260510101602 60 195 0.0 0.0 0.00 0.00 0.00 85 1013.8
20260510100546 60 195 0.0 0.0 0.00 0.00 0.00 85 1013.8
20260510100513 61 195 0.0 0.0 0.00 0.00 0.00 85 1013.7
20260510095530 61 194 0.0 0.0 0.00 0.00 0.00 84 1013.7
20260510095033 61 194 0.0 0.0 0.00 0.00 0.00 84 1013.7
20260510094505 61 194 0.0 0.0 0.00 0.00 0.00 84 1013.6
20260510094451 61 194 0.0 0.0 0.00 0.00 0.00 84 1013.5
20260510093500 61 194 0.0 0.0 0.00 0.00 0.00 83 1013.4
20260510092956 61 194 0.0 0.0 0.00 0.00 0.00 83 1013.4
20260510092453 62 194 0.0 0.0 0.00 0.00 0.00 83 1013.1
20260510091950 62 194 0.0 0.0 0.00 0.00 0.00 83 1012.9
20260510091446 62 194 0.0 0.0 0.00 0.00 0.00 83 1012.8
20260510090920 62 194 0.0 0.0 0.00 0.00 0.00 83 1012.6
20260510090357 62 196 0.0 0.0 0.00 0.00 0.00 82 1012.6
20260510085829 62 194 0.0 0.0 0.00 0.01 0.00 82 1012.8
20260510085305 62 169 0.0 0.0 0.00 0.01 0.00 81 1012.8
20260510084757 62 169 0.0 0.0 0.00 0.01 0.00 82 1012.7
20260510084731 62 172 0.0 0.0 0.00 0.01 0.00 82 1012.5
20260510084233 62 259 0.0 0.0 0.00 0.01 0.00 81 1012.6
20260510083231 62 259 0.0 0.0 0.00 0.01 0.00 82 1012.7
20260510082727 61 259 0.0 0.0 0.00 0.01 0.00 82 1012.6
20260510082208 61 259 0.0 0.0 0.00 0.01 0.00 83 1012.7
20260510081633 61 259 0.0 0.0 0.00 0.01 0.00 83 1012.8
20260510081105 60 259 0.0 0.0 0.00 0.01 0.00 84 1012.9
20260510081033 60 259 0.0 0.0 0.00 0.01 0.00 84 1012.9
20260510080034 60 259 0.0 0.0 0.00 0.01 0.00 84 1012.9
20260510075952 60 259 0.0 0.0 0.00 0.01 0.00 84 1012.7
20260510075003 60 259 0.0 0.0 0.00 0.01 0.00 84 1012.6
20260510074442 60 259 0.0 0.0 0.00 0.01 0.00 83 1012.8
20260510073934 60 259 0.0 0.0 0.00 0.01 0.00 83 1012.8
20260510073405 60 259 0.0 0.0 0.00 0.01 0.00 83 1012.7
20260510073341 60 259 0.0 0.0 0.00 0.01 0.00 83 1012.7
20260510072357 60 259 0.0 0.0 0.00 0.01 0.00 83 1012.7
20260510071854 60 259 0.0 0.0 0.00 0.01 0.00 82 1012.7
20260510071355 60 259 0.0 0.0 0.00 0.01 0.00 82 1012.7
20260510070851 60 259 0.0 0.0 0.00 0.01 0.00 82 1012.8
20260510070839 61 259 0.0 0.0 0.00 0.01 0.00 82 1012.8
20260510065828 61 259 0.0 0.0 0.00 0.01 0.00 81 1012.9
20260510065310 61 259 0.0 0.0 0.00 0.01 0.00 81 1013.0
20260510064807 61 259 0.0 0.0 0.00 0.01 0.00 80 1013.1
20260510064306 61 259 0.0 0.0 0.00 0.01 0.00 80 1013.1
20260510063805 61 259 0.0 0.0 0.00 0.01 0.00 79 1013.2
20260510063741 61 259 0.0 0.0 0.00 0.01 0.00 80 1013.4
20260510062800 62 259 0.0 0.0 0.00 0.01 0.00 80 1013.4
20260510062235 62 259 0.0 0.0 0.00 0.01 0.00 80 1013.5
20260510061732 62 259 0.0 0.0 0.00 0.01 0.00 80 1013.6
20260510061213 62 259 0.0 0.0 0.00 0.01 0.00 79 1013.7
20260510060706 62 259 0.0 0.0 0.00 0.01 0.00 78 1013.6
20260510060207 62 259 0.0 1.0 0.00 0.01 0.00 79 1013.7
20260510055648 61 261 0.0 1.0 0.00 0.01 0.00 79 1013.5
20260510055147 61 261 0.0 0.0 0.00 0.01 0.00 79 1013.5
20260510054619 61 261 0.0 0.0 0.00 0.01 0.00 79 1013.4
20260510054118 61 261 0.0 0.0 0.00 0.01 0.00 79 1013.4
20260510053545 61 261 0.0 0.0 0.00 0.01 0.00 79 1013.4
20260510053046 61 261 0.0 0.0 0.00 0.01 0.00 77 1013.3
20260510052534 61 261 0.0 0.0 0.00 0.01 0.00 76 1013.2
20260510052036 61 261 0.0 0.0 0.00 0.01 0.00 76 1013.2
20260510051535 61 261 0.0 0.0 0.00 0.01 0.00 75 1013.2
20260510051524 61 261 0.0 0.0 0.00 0.01 0.00 74 1013.1
20260510050516 62 261 0.0 0.0 0.00 0.01 0.00 74 1013.1
20260510050014 62 261 0.0 0.0 0.00 0.01 0.00 74 1013.1
20260510045509 62 261 0.0 0.0 0.00 0.01 0.01 72 1013.0
20260510045010 63 261 0.0 0.0 0.00 0.01 0.01 72 1012.9
20260510044448 63 261 0.0 0.0 0.00 0.01 0.01 71 1012.8
20260510044440 63 261 0.0 0.0 0.00 0.01 0.01 69 1012.9
20260510043435 63 261 0.0 0.0 0.00 0.01 0.01 70 1012.8
20260510042935 63 261 0.0 0.0 0.00 0.01 0.01 70 1012.8
20260510042423 63 261 0.0 1.0 0.00 0.01 0.01 70 1012.8
20260510042410 62 261 0.0 1.0 0.00 0.01 0.01 69 1012.8
20260510041422 62 261 0.0 0.0 0.00 0.01 0.01 69 1012.8
20260510040918 62 261 0.0 0.0 0.00 0.01 0.01 70 1012.8
20260510040417 62 261 0.0 1.0 0.00 0.01 0.01 70 1012.8
20260510035849 61 261 0.0 1.0 0.00 0.01 0.01 71 1012.8
20260510035326 61 211 0.0 0.0 0.00 0.01 0.01 73 1012.8
20260510035251 61 211 0.0 0.0 0.00 0.01 0.01 73 1012.7
20260510034755 61 211 0.0 0.0 0.00 0.01 0.01 69 1012.6
20260510034258 62 211 0.0 0.0 0.00 0.01 0.01 69 1012.3
20260510033300 62 211 0.0 0.0 0.00 0.01 0.01 70 1012.2
20260510032800 62 211 0.0 0.0 0.00 0.01 0.01 69 1011.9
20260510032235 62 211 0.0 0.0 0.00 0.01 0.01 69 1011.8
20260510032159 62 211 0.0 0.0 0.00 0.01 0.01 69 1011.8
20260510031222 62 211 0.0 0.0 0.00 0.01 0.01 69 1011.6
20260510030718 62 211 0.0 0.0 0.00 0.01 0.01 69 1011.5
20260510030217 62 211 0.0 0.0 0.00 0.01 0.01 69 1011.4
20260510025649 62 211 0.0 0.0 0.00 0.01 0.01 68 1011.5
20260510025151 63 211 0.0 0.0 0.00 0.01 0.01 68 1011.4
20260510024636 63 211 0.0 0.0 0.00 0.01 0.01 67 1011.4
20260510024118 64 211 0.0 1.0 0.00 0.01 0.01 66 1011.4
20260510023617 64 211 0.0 1.0 0.00 0.01 0.01 65 1011.4
20260510023116 64 271 0.0 0.0 0.00 0.01 0.01 61 1011.1
20260510022606 65 271 0.0 0.0 0.00 0.01 0.01 60 1011.0
20260510022529 65 271 0.0 0.0 0.00 0.01 0.01 58 1010.9
20260510021519 66 271 0.0 0.0 0.00 0.01 0.01 58 1010.8
20260510021012 66 271 0.0 0.0 0.00 0.01 0.01 57 1010.7
20260510020442 67 271 0.0 0.0 0.00 0.01 0.01 57 1010.5
20260510015939 67 271 0.0 0.0 0.00 0.01 0.01 56 1010.5
20260510015433 68 271 0.0 0.0 0.00 0.01 0.01 54 1010.5
20260510014931 68 271 0.0 0.0 0.00 0.01 0.01 54 1010.3
20260510014430 69 271 0.0 0.0 0.00 0.01 0.01 54 1010.2
20260510013925 69 271 0.0 0.0 0.00 0.01 0.01 54 1010.1
20260510013427 69 271 0.0 0.0 0.00 0.01 0.01 53 1010.0
20260510012906 70 271 0.0 0.0 0.00 0.01 0.01 50 1010.1
20260510012404 71 271 0.0 0.0 0.00 0.01 0.01 49 1010.0
20260510011906 72 271 0.0 0.0 0.00 0.02 0.01 48 1009.8
20260510011351 73 271 0.0 0.0 0.00 0.03 0.01 47 1009.7
20260510011336 74 271 0.0 0.0 0.00 0.04 0.01 46 1009.8
20260510010831 76 271 0.0 0.0 0.00 0.04 0.01 45 1009.8
20260510005844 77 271 0.0 0.0 0.00 0.04 0.01 43 1009.7
20260510005328 78 271 0.0 0.0 0.00 0.05 0.01 42 1009.7
20260510005237 80 271 0.0 1.0 0.00 0.05 0.01 40 1009.7
20260510004236 82 271 0.0 0.0 0.00 0.06 0.01 41 1009.7
20260510003720 82 271 0.0 0.0 0.00 0.07 0.01 41 1009.6
20260510003157 83 271 0.0 1.0 0.00 0.07 0.01 42 1009.6
20260510002638 83 271 0.0 1.0 0.00 0.07 0.01 43 1009.6
20260510002139 83 271 0.0 1.0 0.00 0.07 0.01 41 1009.6
20260510001615 83 271 0.0 1.0 0.00 0.07 0.01 40 1009.6
20260510001111 83 259 0.0 3.0 0.00 0.07 0.01 40 1009.6
20260510000612 83 99 0.0 3.0 0.00 0.07 0.01 39 1009.7
20260510000108 84 198 0.0 0.0 0.00 0.07 0.01 41 1009.7
20260509235611 84 198 0.0 0.0 0.00 0.07 0.01 40 1009.7
20260509235051 84 197 0.0 0.0 0.00 0.07 0.01 41 1009.7
20260509234536 85 175 0.0 0.0 0.00 0.07 0.01 41 1009.8
20260509234036 85 175 0.0 0.0 0.00 0.07 0.01 40 1009.8
20260509233535 85 175 0.0 0.0 0.00 0.07 0.01 43 1009.8
20260509233030 85 175 0.0 0.0 0.00 0.07 0.01 43 1009.8
20260509232526 86 175 0.0 0.0 0.00 0.07 0.01 40 1009.9
20260509232011 86 198 0.0 0.0 0.00 0.07 0.01 41 1009.9
20260509231449 86 199 0.0 1.0 0.00 0.07 0.01 38 1009.9
20260509230931 86 210 0.0 2.0 0.00 0.07 0.01 40 1009.8
20260509230851 86 254 0.0 4.0 0.00 0.07 0.01 41 1009.8
20260509225846 85 157 0.0 4.0 0.00 0.07 0.01 41 1009.8
20260509225324 85 155 1.0 4.0 0.00 0.07 0.01 41 1009.7
20260509224759 86 82 0.0 4.0 0.00 0.07 0.01 36 1009.8
20260509224243 87 212 0.0 1.0 0.00 0.07 0.01 37 1009.8
20260509223740 86 212 0.0 2.0 0.00 0.07 0.01 38 1009.9
20260509223242 86 232 1.0 4.0 0.00 0.07 0.01 40 1009.9
20260509222739 86 269 1.0 4.0 0.00 0.07 0.01 44 1009.9
20260509222241 86 191 0.0 3.0 0.00 0.07 0.01 40 1009.8
20260509221715 86 191 0.0 3.0 0.00 0.07 0.01 41 1009.8
20260509221152 86 201 0.0 2.0 0.00 0.07 0.01 41 1009.9
20260509220623 85 198 0.0 3.0 0.00 0.07 0.01 39 1009.8
20260509220123 85 213 0.0 3.0 0.00 0.07 0.01 43 1009.8
20260509215603 85 245 1.0 3.0 0.00 0.07 0.01 41 1009.9
20260509215057 84 253 0.0 2.0 0.00 0.07 0.01 43 1009.8
20260509215038 84 32 0.0 2.0 0.00 0.07 0.01 38 1009.9
20260509214028 85 206 0.0 3.0 0.00 0.07 0.01 39 1009.9
20260509213510 85 126 0.0 3.0 0.00 0.07 0.01 38 1009.9
20260509213008 85 200 0.0 1.0 0.00 0.07 0.01 44 1009.9
20260509212441 85 199 0.0 1.0 0.00 0.07 0.01 44 1009.9
20260509211924 85 139 0.0 4.0 0.00 0.07 0.01 43 1009.9
20260509211422 85 275 0.0 4.0 0.00 0.07 0.01 42 1010.0
20260509210924 84 312 1.0 4.0 0.00 0.07 0.01 40 1010.2
20260509210415 84 75 1.0 4.0 0.00 0.07 0.01 38 1010.3
20260509205851 85 212 0.0 1.0 0.00 0.07 0.01 42 1010.3
20260509205333 84 200 1.0 4.0 0.00 0.07 0.01 47 1010.3
20260509204831 84 198 2.0 4.0 0.00 0.07 0.01 47 1010.4
20260509204327 83 257 2.0 5.0 0.00 0.07 0.01 41 1010.4
20260509203806 83 256 2.0 5.0 0.00 0.07 0.01 45 1010.5
20260509203240 83 255 2.0 7.0 0.00 0.07 0.01 39 1010.4
20260509203221 83 255 2.0 7.0 0.00 0.07 0.01 38 1010.4
20260509202228 84 255 1.0 5.0 0.00 0.07 0.01 39 1010.4
20260509201711 83 265 1.0 5.0 0.00 0.07 0.01 40 1010.4
20260509201150 83 161 1.0 5.0 0.00 0.07 0.01 38 1010.5
20260509200648 83 189 1.0 4.0 0.00 0.07 0.01 43 1010.6
20260509200121 82 189 2.0 6.0 0.00 0.07 0.01 42 1010.6
20260509195625 83 33 1.0 6.0 0.00 0.07 0.01 40 1010.5
20260509195054 83 19 1.0 4.0 0.00 0.07 0.01 39 1010.5
20260509194529 84 45 0.0 4.0 0.00 0.07 0.01 44 1010.5
20260509194002 84 179 1.0 5.0 0.00 0.07 0.01 46 1010.6
20260509193438 84 65 1.0 5.0 0.00 0.07 0.01 40 1010.6
20260509192913 85 37 0.0 3.0 0.00 0.07 0.01 45 1010.7
20260509192405 85 193 0.0 3.0 0.00 0.07 0.01 41 1010.7
20260509191905 85 114 0.0 2.0 0.00 0.07 0.01 43 1010.8
20260509191339 84 196 1.0 4.0 0.00 0.07 0.01 45 1010.9
20260509190834 83 211 2.0 4.0 0.00 0.07 0.01 46 1010.9
20260509190311 83 207 1.0 4.0 0.00 0.07 0.01 44 1010.9
20260509190225 83 248 1.0 3.0 0.00 0.07 0.01 44 1011.0
20260509185238 83 111 1.0 3.0 0.00 0.07 0.01 42 1011.1
20260509184713 83 90 1.0 4.0 0.00 0.07 0.01 43 1011.0
20260509184628 82 218 1.0 4.0 0.00 0.07 0.01 45 1011.1
20260509183630 82 252 1.0 4.0 0.00 0.07 0.01 42 1011.1
20260509183127 81 244 3.0 6.0 0.00 0.07 0.01 44 1011.2
20260509183113 82 247 2.0 6.0 0.00 0.07 0.01 44 1011.1
20260509182058 83 240 1.0 4.0 0.00 0.07 0.01 41 1011.1
20260509181532 82 214 1.0 4.0 0.00 0.07 0.01 50 1011.2
20260509181515 81 188 2.0 6.0 0.00 0.07 0.01 50 1011.2
20260509180526 82 258 1.0 6.0 0.00 0.07 0.01 45 1011.3
20260509180455 81 170 1.0 6.0 0.00 0.07 0.01 55 1011.4
20260509175454 81 236 2.0 6.0 0.00 0.07 0.01 48 1011.4
20260509175446 81 230 2.0 7.0 0.00 0.07 0.01 50 1011.4
20260509174425 82 258 1.0 7.0 0.00 0.07 0.01 48 1011.4
20260509174350 83 261 1.0 4.0 0.00 0.07 0.01 47 1011.5
20260509173407 83 196 1.0 4.0 0.00 0.07 0.01 51 1011.6
20260509172900 84 233 1.0 3.0 0.00 0.07 0.01 47 1011.8
20260509172355 84 188 0.0 3.0 0.00 0.07 0.01 51 1011.8
20260509171854 83 186 0.0 2.0 0.00 0.07 0.01 58 1011.8
20260509171337 83 245 1.0 3.0 0.00 0.07 0.01 57 1011.8
20260509170832 83 221 0.0 2.0 0.00 0.07 0.01 56 1011.9
20260509170317 82 75 0.0 2.0 0.00 0.07 0.01 55 1011.6
20260509165815 82 104 0.0 2.0 0.00 0.07 0.01 58 1011.6
20260509165757 81 134 1.0 3.0 0.00 0.07 0.01 58 1011.6
20260509164809 81 106 1.0 3.0 0.00 0.07 0.01 62 1011.6
20260509164242 82 11 1.0 3.0 0.00 0.07 0.01 58 1011.5
20260509164213 81 181 1.0 6.0 0.00 0.07 0.01 63 1011.5
20260509163206 82 244 1.0 6.0 0.00 0.07 0.01 57 1011.6
20260509162709 82 188 0.0 1.0 0.00 0.07 0.01 64 1011.8
20260509162635 81 195 1.0 5.0 0.00 0.07 0.01 68 1011.8
20260509161622 80 193 2.0 5.0 0.00 0.07 0.01 63 1011.8
20260509161124 81 248 0.0 4.0 0.00 0.07 0.01 62 1011.9
20260509160621 81 206 0.0 1.0 0.00 0.07 0.01 66 1012.0
20260509160119 80 157 0.0 1.0 0.00 0.07 0.01 68 1011.9
20260509155553 80 148 0.0 3.0 0.00 0.07 0.01 67 1011.9
20260509155024 81 71 0.0 3.0 0.00 0.07 0.01 61 1011.8
20260509154516 81 163 0.0 0.0 0.00 0.07 0.01 66 1011.8
20260509154017 80 183 0.0 2.0 0.00 0.07 0.01 65 1011.8
20260509153519 80 191 0.0 2.0 0.00 0.07 0.01 68 1011.8
20260509153001 79 152 0.0 2.0 0.00 0.07 0.01 68 1011.8
20260509152500 79 150 0.0 2.0 0.00 0.07 0.01 69 1011.9
20260509151956 78 200 1.0 3.0 0.00 0.07 0.01 70 1011.9
20260509151441 77 140 1.0 4.0 0.00 0.07 0.01 70 1011.9
20260509150911 78 243 1.0 4.0 0.00 0.07 0.01 67 1011.8
20260509150409 78 258 0.0 2.0 0.00 0.07 0.01 67 1011.8
20260509145842 77 208 0.0 1.0 0.00 0.07 0.01 71 1011.8
20260509145317 77 195 0.0 3.0 0.00 0.07 0.01 70 1011.6
20260509145241 77 231 0.0 3.0 0.00 0.07 0.01 68 1011.8
20260509144257 76 205 0.0 3.0 0.00 0.07 0.01 69 1011.6
20260509143759 76 190 1.0 3.0 0.00 0.07 0.01 71 1011.8
20260509143231 76 259 0.0 3.0 0.00 0.07 0.01 66 1011.6
20260509143147 76 195 0.0 1.0 0.00 0.07 0.01 70 1011.6
20260509142138 76 179 0.0 1.0 0.00 0.07 0.01 70 1011.6
20260509142116 76 146 0.0 0.0 0.00 0.07 0.01 69 1011.5
20260509141106 76 196 0.0 0.0 0.00 0.07 0.01 71 1011.5
20260509141022 75 202 0.0 0.0 0.00 0.07 0.01 72 1011.5
20260509140037 74 191 0.0 0.0 0.00 0.07 0.01 74 1011.5
20260509135533 73 191 0.0 0.0 0.00 0.07 0.01 75 1011.4
20260509135031 72 181 0.0 0.0 0.00 0.07 0.01 76 1011.4
20260509134504 72 186 0.0 0.0 0.00 0.07 0.01 76 1011.3
20260509134431 71 176 0.0 0.0 0.00 0.07 0.01 79 1011.2